EZY11SC BIKF-EGKK

Flight info

Callsign EZY11SC
Flight time N/A
Altitude 39000
Route PIXUM1A PIXUM DCT PETUX DCT PODAR DCT ERAKA/N0433F390 DCT ETSOM DCT MAKUX DCT SOSIM L15 KEPAD L151 DISIT
Aircraft A20N/M-SDE2E3FGHIRWXY/LB1

Departure

Time 2026-05-06 16:36
Airport Keflavik International Airport (BIKF)

Arrival

Time N/A
Airport London Gatwick Airport (EGKK)
Time Latitude Longitude Altitude Speed Heading
2026-05-06 16:02 63.99425 -22.62460 174 ft 0 kts 88°
2026-05-06 16:22 63.99425 -22.62488 167 ft 2 kts 100°
2026-05-06 16:22 63.99428 -22.62524 164 ft 2 kts 108°
2026-05-06 16:22 63.99435 -22.62559 164 ft 2 kts 122°
2026-05-06 16:22 63.99444 -22.62589 164 ft 2 kts 135°
2026-05-06 16:23 63.99457 -22.62613 164 ft 2 kts 148°
2026-05-06 16:23 63.99471 -22.62631 164 ft 2 kts 158°
2026-05-06 16:23 63.99487 -22.62643 164 ft 2 kts 166°
2026-05-06 16:23 63.99503 -22.62650 164 ft 2 kts 172°
2026-05-06 16:24 63.99519 -22.62653 164 ft 2 kts 179°
2026-05-06 16:24 63.99526 -22.62654 164 ft 0 kts 184°
2026-05-06 16:24 63.99521 -22.62654 164 ft 4 kts 183°
2026-05-06 16:24 63.99465 -22.62661 164 ft 10 kts 184°
2026-05-06 16:25 63.99413 -22.62699 164 ft 0 kts 204°
2026-05-06 16:27 63.99412 -22.62700 164 ft 1 kts 204°
2026-05-06 16:27 63.99392 -22.62720 164 ft 5 kts 204°
2026-05-06 16:27 63.99348 -22.62753 164 ft 8 kts 188°
2026-05-06 16:27 63.99280 -22.62738 164 ft 12 kts 162°
2026-05-06 16:28 63.99207 -22.62679 163 ft 11 kts 176°
2026-05-06 16:28 63.99175 -22.62572 163 ft 9 kts 89°
2026-05-06 16:28 63.99174 -22.62412 163 ft 11 kts 91°
2026-05-06 16:28 63.99173 -22.62215 163 ft 13 kts 91°
2026-05-06 16:29 63.99172 -22.61988 164 ft 15 kts 90°
2026-05-06 16:29 63.99173 -22.61737 164 ft 16 kts 89°
2026-05-06 16:29 63.99172 -22.61471 166 ft 17 kts 90°
2026-05-06 16:29 63.99173 -22.61189 167 ft 18 kts 88°
2026-05-06 16:30 63.99162 -22.60970 167 ft 13 kts 128°
2026-05-06 16:30 63.99108 -22.60946 166 ft 14 kts 176°
2026-05-06 16:30 63.98952 -22.60943 163 ft 20 kts 185°
2026-05-06 16:30 63.98792 -22.60948 159 ft 25 kts 178°
2026-05-06 16:31 63.98601 -22.60936 155 ft 30 kts 178°
2026-05-06 16:31 63.98382 -22.60936 151 ft 33 kts 181°
2026-05-06 16:31 63.98143 -22.60940 150 ft 36 kts 180°
2026-05-06 16:31 63.97889 -22.60942 148 ft 38 kts 180°
2026-05-06 16:32 63.97616 -22.60948 146 ft 40 kts 177°
2026-05-06 16:32 63.97445 -22.60939 145 ft 18 kts 180°
2026-05-06 16:32 63.97305 -22.60945 144 ft 22 kts 181°
2026-05-06 16:32 63.97138 -22.60947 143 ft 26 kts 180°
2026-05-06 16:33 63.96946 -22.60945 142 ft 29 kts 179°
2026-05-06 16:33 63.96736 -22.60940 141 ft 30 kts 180°
2026-05-06 16:33 63.96671 -22.60941 141 ft 8 kts 180°
2026-05-06 16:34 63.96521 -22.60944 140 ft 3 kts 180°
2026-05-06 16:34 63.96485 -22.60932 140 ft 7 kts 157°
2026-05-06 16:34 63.96463 -22.60820 139 ft 10 kts 95°
2026-05-06 16:34 63.96458 -22.60643 139 ft 13 kts 90°
2026-05-06 16:35 63.96490 -22.60543 139 ft 12 kts 18°
2026-05-06 16:35 63.96581 -22.60547 140 ft 22 kts 358°
2026-05-06 16:35 63.97195 -22.60540 143 ft 104 kts 359°
2026-05-06 16:35 63.97738 -22.60542 234 ft 123 kts
2026-05-06 16:36 63.98574 -22.60605 778 ft 124 kts
2026-05-06 16:36 63.99437 -22.60676 1414 ft 123 kts
2026-05-06 16:36 64.00303 -22.60655 1985 ft 128 kts
2026-05-06 16:36 64.01233 -22.60604 2391 ft 144 kts
2026-05-06 16:37 64.02301 -22.60557 2839 ft 162 kts
2026-05-06 16:37 64.03508 -22.60529 3295 ft 184 kts
2026-05-06 16:37 64.04829 -22.60098 3806 ft 201 kts 25°
2026-05-06 16:37 64.05900 -22.58072 4756 ft 202 kts 56°
2026-05-06 16:38 64.06338 -22.55079 5912 ft 204 kts 84°
2026-05-06 16:38 64.06359 -22.51699 6628 ft 223 kts 87°
2026-05-06 16:38 64.06344 -22.47960 7186 ft 245 kts 87°
2026-05-06 16:38 64.06134 -22.44013 7885 ft 263 kts 106°
2026-05-06 16:39 64.05146 -22.40449 8971 ft 273 kts 131°
2026-05-06 16:39 64.03543 -22.37941 9947 ft 284 kts 146°
2026-05-06 16:39 64.01778 -22.35732 10729 ft 296 kts 148°
2026-05-06 16:39 63.99891 -22.33408 11125 ft 320 kts 148°
2026-05-06 16:40 63.97877 -22.30915 11610 ft 336 kts 148°
2026-05-06 16:40 63.95809 -22.28346 12456 ft 341 kts 148°
2026-05-06 16:40 63.93712 -22.25734 13329 ft 346 kts 148°
2026-05-06 16:40 63.91589 -22.23079 14196 ft 349 kts 148°
2026-05-06 16:41 63.89479 -22.20441 15072 ft 349 kts 148°
2026-05-06 16:41 63.87333 -22.17762 15850 ft 354 kts 148°
2026-05-06 16:41 63.85158 -22.15047 16575 ft 359 kts 148°
2026-05-06 16:41 63.82948 -22.12294 17331 ft 363 kts 148°
2026-05-06 16:42 63.80770 -22.09327 18038 ft 365 kts 141°
2026-05-06 16:42 63.78794 -22.05790 18712 ft 368 kts 136°
2026-05-06 16:42 63.76822 -22.02051 19375 ft 371 kts 136°
2026-05-06 16:42 63.74834 -21.98298 20018 ft 374 kts 136°
2026-05-06 16:43 63.72821 -21.94516 20658 ft 378 kts 136°
2026-05-06 16:43 63.70790 -21.90717 21302 ft 381 kts 136°
2026-05-06 16:43 63.68728 -21.86872 21943 ft 385 kts 136°
2026-05-06 16:43 63.66653 -21.83011 22558 ft 389 kts 136°
2026-05-06 16:44 63.64581 -21.79165 23206 ft 392 kts 136°
2026-05-06 16:44 63.62471 -21.75259 23886 ft 394 kts 136°
2026-05-06 16:44 63.60343 -21.71323 24346 ft 398 kts 136°
2026-05-06 16:44 63.58215 -21.67249 24807 ft 401 kts 133°
2026-05-06 16:45 63.56304 -21.62682 25268 ft 401 kts 126°
2026-05-06 16:45 63.54663 -21.57603 25720 ft 402 kts 118°
2026-05-06 16:45 63.53251 -21.52247 26162 ft 405 kts 117°
2026-05-06 16:45 63.51819 -21.46771 26600 ft 409 kts 117°
2026-05-06 16:46 63.50363 -21.41251 27014 ft 413 kts 117°
2026-05-06 16:46 63.48886 -21.35689 27444 ft 417 kts 117°
2026-05-06 16:46 63.47391 -21.30089 27847 ft 420 kts 117°
2026-05-06 16:46 63.45883 -21.24462 28245 ft 424 kts 118°
2026-05-06 16:47 63.44369 -21.18827 28631 ft 427 kts 118°
2026-05-06 16:47 63.42828 -21.13107 29011 ft 431 kts 118°
2026-05-06 16:47 63.41269 -21.07331 29310 ft 437 kts 118°
2026-05-06 16:47 63.39689 -21.01489 29605 ft 441 kts 119°
2026-05-06 16:48 63.38094 -20.95608 29964 ft 444 kts 119°
2026-05-06 16:48 63.36482 -20.89691 30292 ft 448 kts 120°
2026-05-06 16:48 63.34730 -20.84027 30541 ft 453 kts 125°
2026-05-06 16:48 63.32799 -20.78439 30828 ft 456 kts 125°
2026-05-06 16:49 63.30856 -20.72808 31096 ft 460 kts 125°
2026-05-06 16:49 63.28904 -20.67150 31381 ft 463 kts 126°
2026-05-06 16:49 63.26933 -20.61447 31717 ft 464 kts 126°
2026-05-06 16:49 63.24957 -20.55741 32044 ft 466 kts 126°
2026-05-06 16:50 63.22976 -20.50038 32420 ft 466 kts 126°
2026-05-06 16:50 63.20991 -20.44337 32752 ft 468 kts 126°
2026-05-06 16:50 63.19022 -20.38696 33031 ft 470 kts 126°
2026-05-06 16:50 63.17012 -20.32953 33391 ft 470 kts 127°
2026-05-06 16:51 63.15008 -20.27244 33767 ft 470 kts 127°
2026-05-06 16:51 63.12991 -20.21509 34085 ft 471 kts 127°
2026-05-06 16:51 63.10996 -20.15854 34304 ft 473 kts 127°
2026-05-06 16:51 63.08968 -20.10119 34578 ft 473 kts 127°
2026-05-06 16:52 63.06938 -20.04391 34897 ft 472 kts 127°
2026-05-06 16:52 63.04911 -19.98690 35182 ft 472 kts 127°
2026-05-06 16:52 63.02876 -19.92979 35361 ft 474 kts 127°
2026-05-06 16:52 63.00835 -19.87265 35604 ft 475 kts 127°
2026-05-06 16:53 62.98805 -19.81598 35861 ft 475 kts 127°
2026-05-06 16:53 62.96752 -19.75877 36061 ft 476 kts 128°
2026-05-06 16:53 62.94704 -19.70185 36427 ft 473 kts 128°
2026-05-06 16:54 62.90583 -19.58780 36785 ft 476 kts 128°
2026-05-06 16:54 62.88518 -19.53090 37028 ft 476 kts 128°
2026-05-06 16:54 62.86464 -19.47440 37348 ft 474 kts 128°
2026-05-06 16:54 62.84408 -19.41799 37602 ft 473 kts 128°
2026-05-06 16:55 62.82338 -19.36134 37584 ft 479 kts 128°
2026-05-06 16:55 62.78175 -19.24784 37991 ft 479 kts 128°
2026-05-06 16:55 62.76085 -19.19108 38190 ft 479 kts 128°
2026-05-06 16:56 62.73987 -19.13397 38168 ft 484 kts 126°
2026-05-06 16:56 62.72105 -19.07278 38298 ft 484 kts 120°
2026-05-06 16:56 62.70399 -19.00984 38694 ft 479 kts 120°
2026-05-06 16:56 62.68706 -18.94734 38914 ft 478 kts 120°
2026-05-06 16:57 62.67020 -18.88521 39054 ft 476 kts 120°
2026-05-06 16:57 62.63657 -18.76210 39117 ft 476 kts 120°
2026-05-06 16:58 62.60233 -18.63784 39106 ft 481 kts 120°
2026-05-06 16:58 62.56802 -18.51419 39109 ft 476 kts 121°
2026-05-06 16:59 62.53393 -18.39199 39105 ft 475 kts 121°
2026-05-06 16:59 62.49977 -18.27014 39089 ft 477 kts 121°
2026-05-06 17:00 62.46512 -18.14728 39091 ft 479 kts 121°
2026-05-06 17:00 62.43051 -18.02522 39080 ft 472 kts 121°
2026-05-06 17:01 62.39587 -17.90367 39077 ft 477 kts 121°
2026-05-06 17:01 62.36103 -17.78210 39096 ft 480 kts 122°
2026-05-06 17:02 62.32592 -17.66020 39064 ft 476 kts 122°
2026-05-06 17:02 62.29088 -17.53918 39067 ft 477 kts 122°
2026-05-06 17:03 62.25560 -17.41805 39051 ft 481 kts 122°
2026-05-06 17:03 62.22025 -17.29734 39053 ft 479 kts 122°
2026-05-06 17:04 62.18494 -17.17738 39032 ft 473 kts 122°
2026-05-06 17:04 62.14958 -17.05783 39038 ft 476 kts 123°
2026-05-06 17:05 62.11406 -16.93843 39045 ft 479 kts 123°
2026-05-06 17:05 62.07823 -16.81855 39021 ft 478 kts 123°
2026-05-06 17:06 62.04246 -16.69952 39021 ft 477 kts 123°
2026-05-06 17:06 62.00640 -16.58022 39017 ft 481 kts 123°
2026-05-06 17:07 61.97018 -16.46096 39012 ft 480 kts 123°
2026-05-06 17:07 61.93386 -16.34199 39009 ft 478 kts 123°
2026-05-06 17:08 61.89762 -16.22390 38997 ft 476 kts 124°
2026-05-06 17:08 61.86112 -16.10552 38994 ft 482 kts 124°
2026-05-06 17:09 61.82463 -15.98785 38982 ft 482 kts 124°
2026-05-06 17:09 61.78805 -15.87050 38985 ft 476 kts 124°
2026-05-06 17:10 61.75137 -15.75341 38978 ft 479 kts 125°
2026-05-06 17:10 61.71425 -15.63554 38978 ft 483 kts 124°
2026-05-06 17:11 61.67741 -15.51912 38967 ft 479 kts 124°
2026-05-06 17:11 61.64058 -15.40326 38953 ft 476 kts 126°
2026-05-06 17:12 61.60340 -15.28692 38958 ft 481 kts 126°
2026-05-06 17:12 61.56571 -15.16972 38944 ft 483 kts 125°
2026-05-06 17:13 61.52773 -15.05393 38942 ft 479 kts 129°
2026-05-06 17:13 61.48429 -14.94948 38935 ft 474 kts 137°
2026-05-06 17:14 61.43413 -14.85963 38922 ft 475 kts 144°
2026-05-06 17:14 61.38158 -14.77580 38925 ft 478 kts 145°
2026-05-06 17:15 61.32879 -14.69124 38901 ft 479 kts 145°
2026-05-06 17:15 61.27637 -14.60758 38914 ft 473 kts 144°
2026-05-06 17:16 61.22381 -14.52366 38895 ft 479 kts 146°
2026-05-06 17:16 61.17049 -14.43984 38890 ft 476 kts 144°
2026-05-06 17:17 61.11828 -14.35731 38883 ft 476 kts 146°
2026-05-06 17:17 61.06526 -14.27425 38879 ft 480 kts 146°
2026-05-06 17:18 61.01177 -14.19068 38881 ft 488 kts 147°
2026-05-06 17:18 60.95723 -14.10601 38882 ft 491 kts 147°
2026-05-06 17:19 60.90356 -14.02304 38867 ft 475 kts 147°
2026-05-06 17:19 60.85072 -13.94158 38865 ft 476 kts 146°
2026-05-06 17:20 60.79766 -13.85995 38845 ft 481 kts 147°
2026-05-06 17:20 60.74406 -13.77858 38842 ft 472 kts 146°
2026-05-06 17:21 60.69134 -13.69830 38843 ft 475 kts 146°
2026-05-06 17:21 60.63808 -13.61728 38807 ft 480 kts 147°
2026-05-06 17:22 60.58451 -13.53644 38830 ft 479 kts 148°
2026-05-06 17:22 60.53064 -13.45558 38815 ft 480 kts 147°
2026-05-06 17:22 60.50444 -13.41653 38812 ft 467 kts 147°
2026-05-06 17:23 60.47852 -13.37780 38812 ft 458 kts 147°
2026-05-06 17:23 60.42678 -13.30005 38816 ft 466 kts 148°
2026-05-06 17:24 60.38298 -13.23552 38794 ft 471 kts 148°
2026-05-06 17:24 60.32168 -13.14501 38799 ft 469 kts 148°
2026-05-06 17:25 60.27766 -13.08043 38796 ft 467 kts 147°
2026-05-06 17:25 60.22555 -13.00400 38785 ft 463 kts 147°
2026-05-06 17:26 60.17297 -12.92689 38789 ft 470 kts 148°
2026-05-06 17:26 60.12035 -12.85053 38762 ft 465 kts 147°
2026-05-06 17:27 60.06835 -12.77505 38787 ft 462 kts 147°
2026-05-06 17:27 60.01609 -12.69967 38779 ft 463 kts 147°
2026-05-06 17:28 59.96372 -12.62439 38796 ft 463 kts 147°
2026-05-06 17:28 59.91165 -12.54984 38788 ft 462 kts 147°
2026-05-06 17:29 59.85917 -12.47498 38762 ft 462 kts 148°
2026-05-06 17:29 59.80729 -12.40127 38779 ft 461 kts 148°
2026-05-06 17:30 59.75504 -12.32735 38780 ft 460 kts 148°
2026-05-06 17:30 59.70284 -12.25376 38777 ft 460 kts 148°
2026-05-06 17:31 59.65058 -12.18038 38770 ft 460 kts 148°
2026-05-06 17:31 59.59829 -12.10725 38762 ft 459 kts 148°
2026-05-06 17:32 59.54634 -12.03488 38778 ft 459 kts 148°
2026-05-06 17:32 59.49411 -11.96239 38776 ft 459 kts 148°
2026-05-06 17:33 59.44178 -11.89006 38780 ft 459 kts 148°
2026-05-06 17:33 59.38980 -11.81846 38781 ft 459 kts 148°
2026-05-06 17:34 59.33738 -11.74656 38767 ft 459 kts 148°
2026-05-06 17:34 59.28486 -11.67479 38771 ft 460 kts 148°
2026-05-06 17:35 59.23237 -11.60332 38809 ft 460 kts 148°
2026-05-06 17:35 59.18010 -11.53244 38824 ft 460 kts 148°
2026-05-06 17:36 59.10101 -11.42567 38826 ft 460 kts 149°
2026-05-06 17:36 59.04822 -11.35476 38805 ft 460 kts 148°
2026-05-06 17:37 58.99581 -11.28461 38806 ft 460 kts 148°
2026-05-06 17:37 58.94297 -11.21416 38814 ft 460 kts 149°
2026-05-06 17:38 58.89003 -11.14384 38822 ft 460 kts 149°
2026-05-06 17:38 58.83714 -11.07386 38791 ft 460 kts 149°
2026-05-06 17:39 58.78458 -11.00456 38805 ft 460 kts 149°
2026-05-06 17:39 58.73164 -10.93505 38808 ft 460 kts 149°
2026-05-06 17:40 58.67853 -10.86555 38810 ft 461 kts 149°
2026-05-06 17:40 58.62578 -10.79680 38824 ft 461 kts 149°
2026-05-06 17:41 58.57261 -10.72774 38804 ft 461 kts 149°
2026-05-06 17:41 58.51937 -10.65884 38831 ft 461 kts 149°